Tracking 19250 objects as of 23-Sep-2018
HD Live streaming from Space Station
objects crossing your sky now

BIRD-BT (BHUTAN-1)

Track BIRD-BT (BHUTAN-1) now!
10-day predictions
BIRD-BT (BHUTAN-1) is classified as:


NORAD ID: 43591
Int'l Code: 1998-067PF
Perigee: 404.5 km
Apogee: 411.7 km
Inclination: 51.6 °
Period: 92.6 minutes
Semi major axis: 6779 km
RCS: Unknown
Launch date: November 20, 1998
Source: (TBD)
Launch site: TYURATAM MISSILE AND SPACE COMPLEX (TTMTR)
Uplink (MHz): 145.825
Downlink (MHz): 145.825
Beacon (MHz): 437.375
Mode: APRS digipeater CW
Call sign: JG6YKL
Status: Active

aabbcc
Your satellite tracking list
Your tracking list is empty




NASA's NSSDC Master Catalog

Two Line Element Set (TLE):
1 43591U 98067PF  18265.40641166 +.00011485 +00000-0 +17220-3 0  9996
2 43591 051.6382 253.8593 0005292 225.3897 134.6663 15.55419517006680
Source of the keplerian elements: AMSAT